Regional Weather Roundup
Issued by NWS

Home | Current Version | Previous Version | Text Only | Print | Product List | Glossary Off
Versions: 1 2 3 4 5 6 7 8 9 10 11 12 13 14 15 16 17 18 19 20 21 22 23 24 25 26 27 28 29 30 31 32 33 34 35 36 37 38 39 40 41 42 43 44 45 46 47 48 49 50

000
ASUS43 KDTX 201710
RWRMI
MICHIGAN HOURLY REGIONAL WEATHER ROUNDUP
NATIONAL WEATHER SERVICE DETROIT/PONTIAC MI
100 PM EDT SAT SEP 20 2014

NOTE: "FAIR" INDICATES FEW OR NO CLOUDS BELOW 12,000 FEET WITH NO
SIGNIFICANT WEATHER AND/OR OBSTRUCTION TO VISIBILITY.

MIZ047>049-052>055-059>063-066>070-074>076-081>083-201800-
SOUTHEAST LOWER MICHIGAN

CITY           SKY/WX    TMP DP  RH WIND       PRES   REMARKS
ADRIAN         MOSUNNY   76  58  53 SW24G35   29.92F
ALMA           PTSUNNY   73  60  63 SW15      29.83F
ANN ARBOR      MOSUNNY   75  58  55 SW14G25   29.89F
BAD AXE        PTSUNNY   70  61  71 SW14G23   29.83F
DETROIT CITY   SUNNY     75  59  57 S15G23    29.89F
DETROIT        PTSUNNY   76  59  55 S22       29.91F
FLINT          PTSUNNY   77  61  57 SW15G23   29.86S
GROSSE ILE     MOSUNNY   72  63  73 S15       29.91F
HILLSDALE      MOSUNNY   76  60  58 SW13G20   29.91F
HOWELL         MOSUNNY   74  61  63 SW14G21   29.87F

CITY           SKY/WX    TMP DP  RH WIND       PRES   REMARKS
JACKSON        MOSUNNY   76  60  57 SW20G26   29.88F
LAMBERTVILLE   MOSUNNY   77  59  53 S13G20    29.94F
LANSING        MOSUNNY   75  60  59 SW17G25   29.87S
LAPEER         NOT AVBL
MASON          MOSUNNY   74  61  63 SW13G20   29.87S
MONROE         MOSUNNY   75  59  57 SW13G20   29.91F
MT. CLEMENS    PTSUNNY   75  62  62 SW17G26   29.86F
PONTIAC        PTSUNNY   74  58  57 SW16G24   29.87F
PORT HOPE        N/A     71  58  63 SW10G21   29.79F
PORT HURON     SUNNY     72  59  64 S16G29    29.86F
TRI CITIES     PTSUNNY   74  59  59 SW21G28   29.83F
YPSILANTI      SUNNY     80  58  46 SW22G33   29.90F
$$
MIZ043>046-050>051-056>058-064>065-071>073-077>080-201800-
SOUTHWEST LOWER MICHIGAN

CITY           SKY/WX    TMP DP  RH WIND       PRES   REMARKS
BATTLE CREEK   PTSUNNY   75  61  61 SW16      29.89S
BENTON HARBOR  MOSUNNY   76  63  64 S14G23    29.86S
BIG RAPIDS     PTSUNNY   72  64  76 SW14G21   29.80F
COLDWATER      SUNNY     77  62  59 SW15G25   29.90F
HOLLAND        CLOUDY    70  62  76 SW22      29.86F
GRAND RAPIDS   PTSUNNY   75  65  70 SW15      29.85F
KALAMAZOO      MOSUNNY   76  62  62 SW21G28   29.88F
MARSHALL       MOSUNNY   75  61  60 MISG      29.88F
MUSKEGON       PTSUNNY   68  60  75 S18G25    29.82F
$$
MIZ016>042-201800-
NORTHERN LOWER MICHIGAN

CITY           SKY/WX    TMP DP  RH WIND       PRES   REMARKS
ALPENA         CLOUDY    67  58  72 SW9       29.73S
BEAVER ISLAND  CLOUDY    65  61  88 SW16G26   29.66R
BELLAIRE       CLOUDY    71  61  71 S5        29.69F
CADILLAC       PTSUNNY   69  61  76 SW14      29.76F
CHARLEVOIX     CLOUDY    69  63  82 SW14G21   29.69F
FRANKFORT      CLOUDY    69  60  72 S16G29    29.72S
GAYLORD        PTSUNNY   69  60  73 SW23G33   29.72F
GRAYLING       CLOUDY    69  61  75 S8        29.75F
HARBOR SPRINGS CLOUDY    67  61  81 SW8G17    29.68S
HOUGHTON LAKE  CLOUDY    68  59  73 SW15      29.77S
MANISTEE       PTSUNNY   66  61  82 SW8G16    29.73F
OSCODA         CLOUDY    69  58  67 SW20G25   29.75F
PELLSTON       CLOUDY    67  61  81 SW14G25   29.67F
TRAVERSE CITY  PTSUNNY   75  61  61 VRB7G24   29.68F
$$
MIZ007>008-015-201800-
EASTERN UPPER MICHIGAN

CITY           SKY/WX    TMP DP  RH WIND       PRES   REMARKS
KINROSS        CLOUDY    64  63  94 SW14G20   29.64R
MACKINAC ISLAN CLOUDY    65  62  89 SW12G23   29.65S
NEWBERRY       CLOUDY    62  60  94 S15G30    29.62F FOG
S. S. MARIE    CLOUDY    64  60  87 SW18G26   29.61S
$$
MIZ004>006-011>014-085-201800-
CENTRAL UPPER MICHIGAN

CITY           SKY/WX    TMP DP  RH WIND       PRES   REMARKS
MANISTIQUE     CLOUDY    61  59  92 SW16G22   29.61F
ESCANABA       MOSUNNY   75  64  69 W12       29.61S
MENOMINEE      MOSUNNY   73  63  68 NW8G18    29.64S
SAWYER-GWINN   PTSUNNY   72  59  64 W18G25    29.60S
$$
MIZ001>003-009>011-084-201800-
WESTERN UPPER MICHIGAN

CITY           SKY/WX    TMP DP  RH WIND       PRES   REMARKS
IRON MOUNTAIN  MOSUNNY   77  60  55 W10G21    29.63R
COPPER HARBOR    N/A     66  59  78 N14G26    29.56R
IRONWOOD       CLOUDY    64  57  77 W14G24    29.68S
$$

ABBREVIATIONS USED IN REMARKS
   TC - TEMPERATURE IN CELSIUS
  WCI - WIND CHILL INDEX
   HX - HEAT INDEX
  VSB - VISIBILITY



USA.gov is the U.S. government's official web portal to all federal, state and local government web resources and services.